Theta_e
339 338 337 335 333 331 332 336 339 340 340 341 341 341 340 340 340 340 340 341 341 341 341 342 341 341 340 339 337 333 330 331 332 334 335 336 336 337 336 337 337 337 336 336 336 335 335 334 333 332 331 331 330 329 328 328 328 328 328 329 331 332 333 334 335 336 337 337 336 336 339 340 340 340 340 338 337 337 337 335 335 337 338 339 340
338 338 337 335 333 332 334 338 341 341 342 341 341 341 341 341 342 341 341 341 342 342 341 341 342 342 342 342 339 335 333 335 337 337 337 337 337 337 336 337 337 336 335 334 334 333 332 332 331 330 328 328 327 326 326 327 328 329 330 331 333 334 335 337 338 338 339 339 339 338 338 339 338 338 336 335 336 338 337 335 335 336 336 338 340
338 337 337 336 335 334 336 339 341 342 341 340 340 341 341 342 342 342 342 342 342 341 341 342 342 342 342 342 342 339 337 339 340 339 338 338 338 339 340 341 340 339 336 334 332 331 330 329 328 327 326 326 326 328 328 329 330 331 332 334 336 338 339 340 341 341 342 342 342 342 342 342 342 340 339 338 339 341 340 337 334 333 333 336 339
337 337 338 339 339 338 337 339 340 340 338 338 339 340 341 342 342 342 342 342 342 342 341 342 342 342 342 342 342 342 341 342 343 341 338 339 340 341 342 343 342 341 339 337 334 332 331 330 329 328 328 328 329 330 330 331 332 333 336 338 341 342 343 343 343 344 345 345 345 345 344 345 344 344 343 342 342 343 344 341 338 335 334 335 338
337 338 341 342 343 342 340 340 340 340 338 338 339 341 341 342 342 342 343 342 342 341 341 341 342 342 341 341 342 342 342 343 343 342 341 341 340 341 342 342 341 339 337 336 335 334 332 331 331 330 330 330 331 332 333 334 335 337 340 343 344 344 345 346 346 347 348 348 347 347 347 347 346 346 346 346 345 346 346 345 343 341 339 339 341
338 341 343 343 343 342 342 342 342 340 339 339 340 341 342 342 343 343 342 342 342 342 341 341 341 341 341 342 342 342 342 343 344 343 343 342 342 342 342 343 340 337 334 333 332 332 331 330 330 330 331 331 333 334 336 338 339 341 344 345 346 346 347 348 348 349 349 349 349 349 349 348 348 347 347 347 347 347 348 347 347 346 346 346 346
339 342 343 343 343 343 342 342 341 341 340 340 341 341 342 342 342 342 342 342 342 341 341 341 341 340 340 341 342 342 343 343 343 344 344 343 343 344 343 344 341 338 337 334 331 330 330 330 331 331 332 334 336 338 339 341 342 344 345 346 347 347 347 348 348 349 349 349 349 349 350 349 349 348 346 345 346 347 347 347 348 347 347 347 347
339 340 341 342 343 344 343 342 341 340 340 341 341 341 342 342 342 343 343 342 341 341 341 341 340 340 340 341 342 342 341 342 343 344 344 344 344 344 344 343 342 340 339 338 335 332 330 331 332 333 335 336 338 340 341 341 343 344 345 347 347 348 348 348 348 349 349 349 349 350 350 350 350 349 347 345 343 344 344 345 345 345 346 346 345
339 340 341 343 343 343 343 342 341 341 341 341 341 341 341 342 342 342 342 342 341 340 341 340 340 340 340 341 342 341 340 341 343 343 343 344 343 343 343 343 343 342 341 341 339 336 333 332 334 335 337 339 340 341 341 341 343 344 345 346 346 346 346 346 347 347 348 348 349 349 349 350 350 350 348 345 342 340 341 341 342 342 343 343 343
338 340 341 342 342 343 343 342 342 342 342 342 341 341 342 342 343 342 343 343 342 341 340 340 340 341 341 341 340 340 340 341 342 342 343 343 343 343 343 343 343 343 343 343 342 339 337 336 336 336 337 339 341 341 342 342 342 343 344 345 344 344 345 345 346 347 347 348 348 349 349 350 350 349 348 345 342 339 338 338 337 338 339 339 339
337 339 340 341 342 343 342 341 343 344 343 342 341 342 342 342 342 342 343 344 343 342 341 340 340 341 340 339 338 339 340 341 342 342 342 342 343 343 342 342 342 343 343 343 343 341 340 339 339 339 339 340 341 342 343 343 343 343 344 344 344 344 346 347 347 348 348 349 349 349 348 349 348 348 348 346 343 341 340 339 337 336 335 335 335
337 339 341 342 342 342 342 342 344 344 344 342 342 342 342 342 342 342 344 344 344 342 340 339 339 339 338 337 337 339 340 341 342 342 342 342 342 342 342 342 342 342 342 342 342 342 341 341 342 342 341 342 343 344 344 344 345 346 344 344 346 346 348 348 349 349 350 350 348 347 347 347 347 347 347 347 345 342 343 342 340 339 338 336 335
339 341 342 342 341 342 342 343 344 344 344 343 342 342 342 342 342 342 344 345 344 342 340 340 340 338 337 337 337 339 340 341 341 341 341 341 341 342 342 342 342 342 341 341 342 342 342 342 342 342 343 342 343 343 345 346 346 346 346 347 348 348 348 348 348 349 350 350 348 346 346 346 346 346 347 347 345 342 343 343 343 342 341 341 339
342 342 342 340 340 340 341 343 343 344 344 344 343 342 341 341 341 343 344 344 344 341 340 340 340 339 338 338 339 340 341 341 341 341 339 340 340 341 341 341 342 342 341 342 342 342 342 341 341 342 342 342 343 344 346 347 346 347 347 348 348 348 348 348 349 348 349 349 347 345 346 346 346 346 345 346 346 344 342 343 343 342 343 344 344
342 341 340 339 340 340 340 342 343 344 344 344 343 342 342 342 342 344 344 345 344 342 340 340 340 339 339 341 341 341 342 340 341 341 339 338 339 340 340 341 341 341 341 342 342 342 342 341 341 341 341 342 343 344 346 347 347 347 348 348 348 348 348 348 348 348 348 347 346 346 346 346 345 344 344 345 346 345 342 342 344 343 343 344 345
342 340 339 340 340 341 341 341 343 344 345 344 344 343 343 343 343 344 345 344 345 343 341 340 339 339 341 342 341 342 345 342 340 340 339 339 339 339 340 340 341 341 341 342 342 341 341 341 340 340 340 340 342 345 347 348 347 347 348 348 348 348 347 347 347 346 346 345 345 346 345 343 342 341 342 342 344 345 343 343 343 344 343 343 344
342 341 340 340 341 341 341 342 343 344 345 345 344 344 344 344 344 345 345 345 345 345 344 341 339 339 341 343 343 344 345 343 342 341 340 339 339 339 340 340 340 341 341 341 341 341 341 340 340 341 342 341 342 345 347 348 348 347 348 348 348 348 347 348 346 344 345 345 345 344 343 342 342 341 341 340 342 343 343 343 343 344 344 342 343
343 343 342 341 340 341 341 341 344 345 344 344 344 344 345 345 345 345 346 346 345 346 346 343 341 341 342 343 343 343 343 343 342 342 341 340 339 339 339 339 340 341 340 342 341 341 341 341 341 342 343 342 342 345 347 347 347 347 347 347 348 348 348 348 346 344 344 344 344 343 341 342 342 342 341 341 342 342 342 342 343 343 343 343 343
344 343 342 341 340 341 341 342 344 344 344 344 343 344 346 346 345 346 347 347 346 346 346 345 345 344 344 344 343 342 343 343 343 343 343 343 340 340 340 340 341 342 342 342 342 342 342 343 343 343 344 343 343 345 347 347 347 347 347 347 348 348 348 348 346 344 344 344 343 343 342 341 342 342 342 342 343 344 343 342 342 343 344 346 345
343 342 341 341 341 341 342 342 343 344 343 343 343 344 346 346 346 346 347 348 348 347 346 346 346 345 345 345 344 344 345 344 343 342 344 346 344 343 343 342 343 344 343 343 343 343 344 344 344 344 344 343 343 345 346 346 347 347 347 348 348 348 348 347 345 344 344 344 343 343 342 341 343 344 343 344 344 344 344 343 343 343 344 347 347
339 340 340 340 340 341 342 342 342 343 343 343 343 344 346 346 346 345 346 348 348 348 348 346 346 346 346 345 345 345 345 345 345 343 343 345 346 346 345 345 346 346 344 345 345 344 344 343 343 344 345 344 343 344 345 346 347 348 348 348 348 348 347 346 345 344 343 344 344 343 343 343 344 344 343 344 343 342 343 343 344 344 344 346 348
338 339 339 339 340 341 342 342 342 342 342 343 343 344 345 346 346 346 346 347 348 348 348 348 347 346 345 345 346 346 346 346 347 346 345 346 346 347 347 347 347 348 347 347 346 346 345 345 345 344 344 344 343 344 345 347 348 348 348 348 348 346 345 345 344 344 344 344 344 344 343 343 342 342 341 341 341 340 341 342 344 345 346 347 348
338 339 340 340 340 341 341 342 342 342 342 343 344 344 345 346 346 345 345 345 346 347 347 348 348 348 347 346 346 346 347 347 347 347 347 347 348 348 348 349 348 349 348 347 346 348 348 348 348 346 345 345 345 345 346 348 349 349 348 347 345 343 344 345 343 343 344 344 345 344 342 342 341 341 340 339 339 339 340 342 344 345 347 349 349
338 338 340 340 340 341 341 341 341 342 343 343 343 344 345 346 346 345 345 344 344 346 346 348 348 348 348 347 347 348 348 347 347 347 347 347 348 349 350 349 349 350 348 347 348 350 350 351 349 346 346 346 346 347 348 348 348 347 345 343 342 342 342 343 342 343 345 344 345 344 342 342 341 339 338 338 339 340 342 343 343 345 346 348 350
338 338 339 340 341 341 341 342 342 341 343 343 343 344 345 346 346 344 343 343 344 344 345 346 347 347 347 347 349 350 349 348 348 349 349 348 349 351 351 350 349 350 349 348 349 350 351 352 350 346 344 344 345 345 345 345 345 344 343 342 341 342 341 341 343 343 344 343 343 343 343 342 340 339 339 340 341 342 343 344 344 345 345 346 348
338 338 339 340 340 341 341 342 342 342 342 343 343 344 345 346 346 345 343 343 343 343 343 344 345 345 345 345 347 350 350 349 349 349 350 350 351 351 351 351 351 351 350 349 349 351 352 352 351 346 341 341 342 343 343 343 343 342 341 341 340 340 341 341 342 342 342 343 343 343 343 342 340 340 342 342 342 343 344 346 345 345 345 346 347
338 338 339 340 340 342 342 342 342 342 342 342 343 344 344 344 345 345 345 343 342 342 342 342 342 343 343 342 344 348 348 347 349 350 350 350 350 350 350 351 352 351 351 352 351 352 352 351 352 347 341 341 341 341 341 340 340 339 338 338 339 340 341 342 342 343 343 343 343 342 341 341 340 342 343 342 342 344 346 348 347 347 347 347 348
339 339 340 341 341 342 343 342 342 342 342 342 343 344 344 344 345 345 346 344 343 342 341 341 340 341 341 340 341 344 344 344 347 349 349 349 349 349 349 351 353 352 352 353 352 352 353 352 351 347 342 340 337 334 334 334 333 332 335 339 341 342 342 342 343 342 342 341 340 339 340 341 343 344 343 343 343 345 347 350 349 349 350 348 349
340 340 341 341 341 342 343 342 341 341 341 341 341 343 344 345 346 346 347 346 344 343 342 341 341 341 341 340 340 341 342 342 345 347 347 347 348 348 350 351 352 353 353 354 353 353 353 352 351 347 341 339 335 330 329 330 329 330 336 341 343 343 342 342 342 341 340 339 338 340 341 343 344 345 344 344 345 347 349 351 351 351 352 351 351
343 343 343 342 341 342 343 343 341 341 341 340 341 342 342 344 346 346 346 346 346 344 343 343 344 343 342 342 341 342 342 344 348 351 349 348 349 349 350 350 351 352 353 353 353 352 352 351 352 348 341 338 337 334 332 331 330 331 335 338 339 341 341 340 340 339 339 340 341 342 344 344 345 345 345 345 346 349 350 352 352 352 353 352 352
346 346 346 344 342 342 342 342 342 341 342 340 341 342 342 344 346 345 345 345 346 345 344 344 344 344 343 343 343 343 343 345 348 350 349 348 349 349 350 350 350 351 351 350 352 351 351 352 351 349 344 339 335 335 334 331 329 331 333 334 336 338 339 339 339 340 341 343 344 344 345 345 346 346 346 346 347 349 350 352 353 352 353 353 352
347 347 347 345 344 342 342 341 341 340 341 340 340 342 343 344 345 344 343 344 344 344 344 343 343 343 344 343 344 343 343 344 344 346 347 346 346 346 346 346 346 348 349 350 350 350 351 350 348 347 345 340 335 334 333 331 330 332 333 336 338 340 341 342 342 343 344 344 343 344 346 346 347 346 347 347 348 349 351 351 353 353 353 353 352
347 347 347 346 344 343 342 341 341 340 341 341 341 342 343 344 343 343 343 343 343 342 342 342 342 342 342 343 343 342 342 342 341 343 346 347 348 348 347 346 346 348 349 350 350 349 350 346 342 344 343 340 340 339 336 335 335 335 336 338 340 343 344 344 345 345 344 343 343 345 347 347 346 347 347 348 349 349 351 351 351 352 352 352 352
347 346 346 346 345 344 343 342 342 342 342 342 342 342 342 343 343 342 342 342 342 341 341 342 342 342 343 343 343 343 344 343 341 343 346 349 350 351 352 351 351 351 351 350 350 349 349 346 342 343 343 341 343 343 341 340 339 338 338 340 342 343 343 343 344 344 342 342 345 346 347 347 347 347 347 348 349 349 350 351 351 351 351 351 351
347 346 345 344 345 345 344 344 344 344 344 344 344 343 342 343 343 341 341 342 342 341 340 340 341 342 343 343 343 345 345 344 343 344 345 346 347 349 351 352 352 352 351 350 349 348 348 345 343 344 344 343 344 344 343 342 342 341 340 341 341 341 341 342 342 342 341 342 345 346 347 347 347 348 348 349 350 350 350 350 350 351 350 350 351
346 346 345 344 344 345 344 344 345 345 345 346 346 346 345 344 343 341 341 342 343 341 340 340 341 342 342 342 343 345 346 345 343 344 346 347 348 348 349 348 348 348 349 349 349 349 347 345 342 343 344 344 344 344 344 343 343 342 341 342 341 342 342 341 340 341 341 343 346 346 347 347 348 348 349 349 350 350 350 350 350 349 349 349 350
346 346 346 345 345 345 345 346 346 346 346 347 346 347 346 345 344 343 342 343 343 343 341 341 341 342 342 342 343 345 347 346 344 346 349 349 349 348 347 346 345 344 345 346 346 346 346 344 342 343 344 344 345 345 344 345 344 343 343 343 342 342 341 340 339 341 342 345 347 347 347 348 348 349 350 349 349 349 349 349 349 349 349 348 349
345 346 346 346 345 345 346 348 348 347 346 347 346 347 347 346 345 344 343 344 344 343 343 343 342 343 343 342 343 345 347 348 346 346 347 347 347 346 345 345 344 344 343 344 343 343 343 343 343 343 343 344 344 344 345 345 344 344 345 344 343 341 339 338 339 342 344 345 347 347 348 349 349 349 349 349 348 348 348 348 349 348 348 348 348
345 346 346 347 347 347 348 349 349 349 348 349 349 348 349 348 346 345 345 346 347 347 346 345 344 344 344 343 344 345 347 347 345 344 345 346 346 346 345 345 344 344 344 344 343 343 343 343 343 344 344 344 345 346 346 345 344 345 346 345 343 341 340 339 340 343 346 346 347 348 348 349 349 349 349 348 348 348 349 349 349 349 349 348 349
345 346 347 347 348 349 348 349 349 350 351 350 351 350 349 349 347 345 346 348 349 350 349 348 347 347 346 346 347 348 348 346 346 346 347 348 348 346 346 346 345 345 345 344 344 343 343 343 344 344 345 345 345 346 345 345 346 346 346 346 344 343 343 343 344 346 348 346 347 348 349 348 348 349 348 348 348 349 348 348 348 348 348 348 348
345 346 346 348 349 349 349 348 349 351 351 351 350 350 350 350 348 348 349 351 352 352 351 350 349 348 347 349 351 351 350 349 348 347 348 348 348 348 348 348 347 347 346 346 345 344 344 343 344 344 345 345 346 347 345 345 346 346 347 347 345 344 345 346 346 348 348 347 347 349 349 347 346 347 348 347 347 347 344 343 344 346 347 348 348
345 345 346 347 348 349 349 349 350 351 351 351 349 350 350 351 351 351 352 352 352 352 352 351 350 349 349 350 351 351 351 351 349 348 348 349 349 349 349 349 349 348 348 346 346 345 345 345 344 345 346 346 347 347 345 344 345 346 346 346 345 345 347 347 347 348 348 347 348 348 348 345 343 343 345 344 345 345 342 337 336 337 340 344 346
344 345 347 348 348 349 350 351 351 352 352 351 351 350 350 351 352 353 352 352 352 352 352 351 351 350 351 351 352 352 353 352 352 350 350 350 350 349 350 350 349 348 347 347 346 346 346 346 345 346 346 346 344 342 342 343 345 346 346 346 346 347 348 348 348 348 347 346 346 346 347 345 340 338 340 342 342 343 343 339 334 330 329 331 335
343 344 346 348 349 350 351 352 352 353 352 352 352 352 351 351 351 351 351 351 352 352 351 352 352 352 352 352 353 354 353 352 352 352 352 351 351 350 350 349 349 348 347 345 344 344 345 345 344 345 345 343 341 340 342 343 344 344 346 347 348 348 348 348 347 346 345 345 345 344 344 345 338 332 336 339 338 339 341 341 337 333 329 323 323
344 344 346 349 349 350 351 352 352 352 353 352 352 352 352 352 352 351 351 352 352 352 351 351 351 352 352 353 353 353 352 350 350 352 352 352 351 350 349 349 348 348 346 345 345 345 344 343 342 343 343 342 341 342 344 344 344 346 347 348 348 348 347 346 345 344 343 343 342 339 341 343 337 332 334 335 333 333 336 338 337 334 330 324 319
346 345 347 348 349 350 351 352 353 353 352 352 351 351 351 352 352 352 352 352 352 352 351 351 351 351 352 352 352 352 352 350 350 350 350 351 350 350 350 349 349 348 347 347 347 347 346 343 341 341 342 342 342 344 345 345 346 348 348 347 347 346 345 344 343 342 340 337 335 335 339 341 336 333 335 335 333 333 334 335 336 332 327 322 317
348 348 348 349 350 351 351 351 352 350 350 349 349 349 349 350 350 350 351 351 350 349 349 349 349 350 350 350 350 350 350 349 349 349 349 349 349 349 349 349 349 349 348 348 348 348 347 345 343 341 342 343 345 346 346 347 348 347 346 346 345 344 343 342 341 341 339 334 329 330 336 338 333 330 332 334 333 336 337 336 334 330 325 320 317
349 349 349 350 350 351 350 350 349 349 348 347 347 347 347 347 347 348 348 349 349 348 347 347 347 347 348 348 347 347 346 346 346 347 347 348 348 348 349 350 349 349 349 349 349 348 347 346 344 343 344 345 346 347 348 347 346 345 344 343 343 342 341 339 337 338 339 332 324 322 328 333 329 322 326 330 329 332 337 338 334 329 325 321 319
350 349 350 350 350 350 350 349 349 348 347 347 347 346 345 345 345 346 346 348 348 348 347 346 346 345 346 345 345 345 344 343 344 343 344 345 346 347 348 348 349 350 349 349 348 348 348 347 345 345 346 347 347 346 346 346 344 343 342 341 341 339 335 331 326 329 333 329 319 316 324 330 326 319 322 329 329 329 334 336 332 327 324 322 319
350 349 349 349 349 349 349 349 349 349 348 347 347 346 345 345 344 345 345 346 348 348 348 347 347 346 345 345 344 344 344 344 344 344 344 343 344 344 346 347 349 349 350 349 349 349 348 346 346 346 347 347 347 345 344 343 342 341 340 339 337 331 325 321 316 318 327 329 320 313 321 327 325 318 318 324 331 335 334 331 327 324 322 321 319
348 348 348 348 348 347 347 346 347 349 349 348 347 347 346 346 346 345 345 346 347 348 348 348 348 346 346 345 345 345 345 344 345 345 345 344 345 344 345 347 349 350 350 349 348 348 347 346 346 347 346 346 345 343 342 341 340 339 337 333 329 323 318 317 314 312 320 326 319 312 316 322 321 319 318 320 327 335 333 326 322 322 321 320 319
Wind_Speed
12 13 13 13 13 13 13 13 12 11 10 9 8 7 7 7 7 6 5 5 5 6 6 7 8 9 10 10 10 10 10 11 11 11 11 12 12 11 10 9 9 9 10 10 10 10 10 11 11 11 11 11 12 12 12 12 12 12 13 13 13 13 13 14 14 14 13 12 12 11 10 9 9 9 8 8 7 8 9 11 11 10 9 9 9
13 13 13 13 12 12 12 12 11 10 8 7 7 6 7 7 6 6 5 5 5 6 6 7 7 8 9 10 11 11 11 12 12 12 12 12 12 12 11 11 11 11 11 11 11 11 11 11 12 12 12 12 12 12 12 12 12 12 13 13 13 13 13 13 13 14 13 13 12 12 10 9 9 9 8 8 7 8 9 10 10 10 9 9 9
13 14 13 13 12 12 12 11 10 8 6 6 6 5 5 6 5 5 5 6 6 6 6 6 7 8 8 9 10 10 11 12 12 12 12 12 13 13 13 13 13 13 13 12 12 12 13 13 13 13 13 13 12 12 12 12 12 12 13 13 13 13 13 13 13 13 13 13 13 12 11 10 10 9 8 8 8 8 9 9 10 9 9 9 9
14 14 13 13 12 11 11 10 8 6 5 5 5 4 4 4 5 5 6 6 6 6 6 7 7 7 8 9 9 10 10 11 12 11 11 11 12 12 12 12 12 12 13 13 13 13 13 13 13 13 13 13 12 12 11 12 12 12 12 12 12 12 12 12 12 13 13 13 13 13 12 11 11 10 9 9 8 9 9 9 10 9 9 8 9
14 14 13 13 12 10 9 8 7 6 5 5 4 3 3 4 5 6 6 7 6 5 6 6 6 7 8 8 9 10 10 11 11 10 9 9 9 10 10 10 10 11 11 11 12 13 13 13 13 13 13 12 12 12 11 11 11 11 11 11 11 11 12 12 12 13 13 13 13 13 13 12 12 11 11 10 10 10 10 10 10 10 10 10 10
14 13 13 12 10 9 8 7 6 6 6 6 5 4 3 3 4 6 7 7 6 6 5 6 6 7 7 8 9 9 10 10 10 9 9 9 9 9 9 9 9 10 10 11 11 11 12 12 13 13 12 12 11 11 11 10 10 10 10 10 10 10 11 11 11 12 12 13 14 14 14 13 13 13 12 11 11 11 11 11 11 11 12 13 13
13 13 12 11 9 7 7 6 6 6 7 6 5 4 2 3 4 6 7 7 7 6 6 5 6 7 7 8 9 9 9 9 8 9 9 9 9 10 10 9 9 9 10 10 10 10 11 12 12 12 11 10 10 10 9 9 9 9 9 10 10 11 11 11 11 12 12 13 14 14 15 15 15 14 13 13 12 12 13 13 13 13 13 14 15
12 12 11 10 8 7 7 6 6 6 6 5 5 4 2 3 4 6 7 7 6 6 5 5 5 6 6 7 8 8 8 8 7 8 8 9 9 9 9 9 9 8 9 9 10 10 11 11 11 10 9 9 8 8 8 9 8 8 8 9 10 11 11 11 11 12 13 14 14 15 15 16 16 15 15 15 14 13 13 14 14 13 14 14 14
12 11 11 9 8 7 6 6 6 6 6 5 5 4 2 2 4 6 7 7 6 6 4 4 4 5 5 6 6 7 7 6 6 7 7 8 8 8 8 8 8 8 9 9 9 10 9 9 8 8 8 8 7 8 8 8 9 8 8 8 9 10 11 11 12 13 13 14 15 15 15 16 16 16 16 16 16 15 14 14 14 14 14 15 15
12 11 10 9 7 6 6 6 6 6 5 5 5 4 2 1 3 6 8 7 7 6 5 3 3 4 4 4 5 6 6 5 5 5 6 7 7 7 7 7 7 8 8 9 9 9 8 7 7 6 7 7 7 8 8 8 9 9 9 8 9 10 11 12 12 13 14 14 14 14 14 15 15 15 15 16 16 16 16 16 15 14 14 15 16
11 10 9 8 7 6 6 6 5 5 5 5 6 5 2 0 2 5 7 8 8 8 6 3 3 3 3 3 3 4 4 4 4 5 5 6 6 5 5 5 6 6 7 7 8 8 7 7 6 6 6 7 7 8 8 9 9 9 9 8 8 10 11 11 12 13 13 13 12 12 13 13 13 14 14 14 15 15 16 16 16 15 15 15 15
11 10 9 7 7 7 6 6 5 5 4 5 5 4 3 1 2 4 6 7 8 8 6 3 3 4 4 3 2 3 3 4 4 5 5 5 5 4 4 4 4 4 5 6 6 6 6 6 6 6 6 7 7 8 9 9 9 9 8 7 7 9 10 10 11 12 12 12 11 11 12 13 13 14 14 14 14 14 14 15 15 15 15 15 15
11 9 8 7 7 7 6 5 4 4 4 3 4 4 4 2 3 4 5 7 8 8 6 4 4 4 4 3 2 3 3 4 5 5 6 5 4 3 3 3 3 3 3 4 4 4 5 5 5 5 6 6 7 8 9 9 9 8 6 6 7 8 10 10 11 12 12 11 10 11 12 13 14 14 14 14 13 13 14 14 15 15 16 16 16
10 9 8 7 7 6 5 4 4 3 3 3 3 4 3 2 2 3 5 6 7 7 6 5 4 4 5 4 3 3 3 4 5 5 6 5 4 2 2 2 1 1 2 2 3 4 5 5 6 6 6 6 6 7 7 7 7 6 5 6 7 9 10 11 12 12 12 11 10 11 12 13 14 15 15 14 13 12 13 14 15 16 16 16 16
9 8 8 7 6 5 4 3 3 2 2 3 3 3 2 1 1 3 5 6 7 6 6 6 4 4 5 5 4 4 4 4 5 6 8 6 3 1 1 1 1 1 1 2 3 4 5 6 7 7 7 5 4 4 5 5 5 5 5 6 8 9 11 12 13 12 11 10 11 12 13 15 16 17 17 16 14 14 14 14 15 16 16 16 16
8 8 7 7 5 4 3 3 3 2 1 2 3 3 2 1 1 3 4 5 6 6 6 6 4 4 5 5 4 5 4 5 6 6 8 7 4 0 1 1 2 1 2 3 4 4 5 6 7 7 8 7 4 2 2 3 4 5 6 7 9 10 11 12 12 11 10 11 12 14 15 15 17 18 18 17 17 16 15 15 15 16 17 17 17
8 8 7 6 5 4 3 3 3 2 2 2 3 3 3 2 1 3 4 4 5 5 6 5 4 4 5 5 4 4 4 5 5 5 7 8 5 1 1 2 3 3 3 4 6 6 6 6 7 8 9 8 5 3 3 3 5 7 8 10 11 11 10 12 13 11 11 12 13 14 14 16 18 19 19 18 18 18 17 16 15 16 17 18 18
8 8 7 6 6 4 4 4 4 3 3 3 3 3 3 2 2 2 4 3 3 4 5 5 5 4 5 5 3 3 4 5 5 4 5 6 6 4 2 2 4 5 5 6 8 8 9 8 9 10 9 8 6 5 5 5 7 8 10 11 11 10 10 13 14 12 12 12 12 13 15 17 18 19 19 19 19 19 19 16 15 16 18 19 18
8 8 7 6 6 5 5 4 4 3 3 3 3 3 3 3 2 2 3 2 2 3 3 3 4 4 4 5 4 3 4 5 4 4 4 5 5 5 4 3 3 5 5 7 8 8 9 9 10 10 9 7 6 6 6 7 7 9 11 12 11 10 11 13 13 12 12 12 12 13 16 18 18 18 18 19 19 20 19 17 16 16 18 20 19
8 8 8 7 6 6 5 5 4 4 3 3 3 3 3 3 2 2 2 2 2 2 2 2 3 3 3 4 4 3 3 4 4 3 3 3 4 5 5 5 5 5 6 7 8 9 9 9 9 9 9 8 6 7 8 8 8 9 11 11 11 12 13 13 13 12 13 13 14 15 17 18 18 18 18 19 20 20 20 18 17 17 18 20 19
9 8 8 7 7 6 5 5 4 4 3 3 3 3 2 3 3 3 2 1 1 2 2 2 2 2 3 3 3 3 3 4 4 4 3 3 3 4 5 5 5 6 7 8 9 10 11 10 10 9 9 8 6 8 9 9 9 9 10 12 13 14 15 13 12 13 14 14 14 15 16 17 17 18 19 20 21 22 21 20 18 18 19 20 19
9 8 8 8 7 7 6 5 5 4 4 4 4 3 3 3 4 4 4 3 2 1 0 1 2 2 2 3 3 3 2 3 3 3 3 3 3 4 5 6 6 7 8 9 10 10 11 10 10 9 9 7 6 8 9 9 9 10 12 14 16 16 14 13 13 14 13 13 14 14 15 16 17 19 20 21 22 23 23 22 21 20 19 19 19
9 8 8 8 7 7 6 6 6 6 5 5 4 3 4 4 4 4 5 4 4 2 2 1 2 2 2 3 3 3 2 2 3 3 4 3 4 5 5 6 7 7 9 11 10 9 9 9 9 9 9 7 6 7 8 9 10 12 14 16 16 15 13 12 13 13 12 13 15 15 16 17 19 20 20 21 23 24 24 24 23 22 21 20 19
9 9 8 8 8 8 8 7 7 7 6 6 5 5 5 5 4 4 5 5 5 5 4 3 3 3 3 4 4 3 3 3 3 4 5 5 5 6 6 7 8 8 10 11 8 6 7 7 8 9 9 8 8 8 10 11 13 14 15 15 13 12 11 11 12 12 12 15 17 18 19 20 21 22 22 22 24 25 25 25 23 21 20 20 19
10 9 9 9 8 8 8 8 8 8 7 7 6 6 5 5 4 4 5 6 6 7 7 6 5 5 5 5 5 4 4 4 4 4 5 6 6 6 6 8 8 8 10 11 8 6 6 7 7 9 9 8 8 9 10 11 13 13 13 12 11 11 11 11 12 12 14 16 18 20 20 22 23 24 24 24 24 25 25 24 22 19 17 17 18
10 9 9 9 9 9 9 9 9 8 8 8 7 7 6 5 5 5 5 6 7 7 8 8 8 7 7 7 6 5 5 6 5 5 5 6 6 6 7 9 8 8 9 10 9 6 6 6 7 8 8 7 8 8 9 10 11 12 13 12 12 11 11 11 12 13 15 17 18 20 22 23 24 25 24 24 24 24 23 22 20 17 15 13 14
10 9 10 10 9 9 9 9 9 9 9 9 8 8 7 7 6 6 6 7 7 8 8 8 9 9 9 9 8 7 8 8 7 6 6 6 6 7 9 9 9 9 8 8 8 6 6 7 6 7 8 7 8 9 10 11 12 14 14 13 12 12 11 12 13 14 15 17 20 21 23 23 24 24 24 24 23 23 22 21 19 16 15 13 11
10 10 10 10 10 9 9 10 10 11 11 10 9 8 8 8 7 7 7 8 8 8 8 9 9 9 10 11 10 10 11 10 9 9 9 9 9 9 9 8 8 9 9 8 8 6 6 7 6 7 9 8 8 10 11 12 13 13 13 12 11 11 12 12 13 15 17 19 21 22 23 23 24 24 24 24 23 21 21 20 17 15 14 13 12
11 11 11 11 10 10 10 11 11 12 12 11 10 9 9 8 8 8 8 9 9 8 9 9 9 9 9 10 11 11 12 11 10 10 10 10 10 10 9 8 8 9 8 9 9 7 7 7 6 9 9 8 9 11 12 12 12 12 12 11 11 12 13 14 15 17 19 21 21 21 22 23 23 23 24 23 21 20 19 18 16 14 13 13 12
11 11 11 11 12 11 11 12 12 12 12 11 11 10 10 9 9 9 9 9 9 9 9 9 9 9 9 9 10 10 11 11 10 10 10 11 11 11 11 10 10 10 9 10 10 8 8 7 7 9 9 8 9 10 11 12 12 12 13 13 13 14 15 16 17 18 19 19 20 21 22 22 22 22 23 22 20 18 17 16 15 14 13 13 13
12 12 12 12 12 13 12 12 13 12 12 12 12 11 11 10 9 10 10 10 9 9 9 9 9 9 9 9 10 10 11 10 10 10 11 12 11 12 12 12 12 11 11 12 11 10 10 9 8 8 9 8 9 10 11 12 13 13 14 15 15 16 17 17 17 17 17 18 19 21 21 21 21 21 21 21 19 18 16 15 15 14 13 13 13
13 13 13 13 13 13 13 13 13 13 12 12 12 12 11 11 11 11 11 10 10 10 10 10 10 10 10 10 10 10 11 11 11 11 11 12 12 12 12 11 11 10 10 11 12 11 10 9 8 8 9 10 11 12 12 12 13 13 14 15 16 17 17 16 15 15 16 19 20 21 21 21 21 21 20 20 19 18 16 15 15 14 14 14 14
13 14 14 14 14 14 14 14 14 13 12 12 12 12 12 12 12 12 11 11 11 11 11 10 10 11 11 11 11 11 11 12 12 11 11 11 11 11 11 10 9 9 10 10 11 12 10 8 8 8 10 11 13 13 13 12 13 13 14 15 16 17 16 16 15 16 18 20 21 21 21 21 21 21 20 20 19 18 17 16 16 15 15 16 16
13 14 14 14 14 14 14 14 14 13 13 12 12 12 13 13 13 13 12 12 12 12 12 11 11 11 12 12 12 11 11 12 12 11 11 10 9 9 8 8 8 8 9 10 11 12 11 10 8 9 11 13 14 15 14 14 15 15 14 14 15 16 17 17 17 19 21 21 21 21 21 21 21 20 20 20 19 19 19 18 18 18 17 18 18
13 14 15 15 15 15 15 14 14 14 13 13 13 13 14 14 13 14 13 12 13 13 13 12 12 12 13 13 12 10 10 11 11 11 11 11 10 9 9 9 9 10 10 10 11 12 12 12 10 10 12 14 15 16 16 16 17 16 15 14 16 17 18 18 18 20 22 21 20 20 20 20 20 19 19 19 19 20 20 20 20 20 19 19 19
14 14 14 15 15 15 15 15 14 14 14 13 14 14 14 14 14 14 13 13 13 13 13 13 12 13 13 13 12 10 10 11 11 10 10 10 9 9 9 10 10 11 11 12 12 12 13 14 12 11 12 15 16 16 17 18 18 17 17 17 18 19 19 19 20 22 22 21 20 19 19 18 18 18 18 18 19 19 20 20 20 20 19 19 18
14 13 14 14 15 15 15 15 14 14 14 14 15 15 15 14 14 14 14 13 13 13 13 13 13 13 14 14 12 12 12 12 11 10 9 9 9 9 10 10 10 11 11 12 12 13 14 15 14 14 14 16 17 18 19 19 20 20 20 19 19 19 20 21 22 22 21 19 19 18 17 16 16 16 17 17 18 18 19 19 19 19 18 18 17
14 14 14 14 14 15 15 14 14 14 14 15 15 15 14 14 14 15 15 14 14 14 13 13 13 13 14 14 14 13 13 13 12 12 10 10 10 10 9 10 10 11 12 13 13 14 15 16 16 17 17 18 19 20 20 21 21 22 22 22 21 21 21 22 23 22 20 18 17 16 15 15 16 16 16 16 17 17 17 17 17 18 17 17 15
15 14 14 14 15 14 15 15 14 14 14 14 15 15 14 14 14 15 15 14 14 13 13 14 13 14 14 14 14 14 14 14 13 12 11 11 11 11 9 9 10 11 12 13 14 15 16 17 18 19 20 20 20 21 21 22 22 22 22 23 23 22 23 24 22 20 18 17 15 14 14 14 15 14 14 15 15 16 16 16 17 17 16 16 15
15 15 15 15 15 14 15 15 14 14 14 14 15 15 14 14 14 14 14 14 14 14 14 14 14 14 14 14 13 13 14 14 14 13 13 12 12 12 11 11 11 12 13 13 14 15 16 17 18 19 20 21 21 21 21 21 21 22 22 21 21 21 22 22 20 17 17 17 14 12 12 13 13 13 13 14 14 15 15 16 16 16 15 16 15
16 15 15 15 15 15 15 15 14 14 14 14 15 15 14 14 13 13 14 14 14 14 14 14 14 15 15 15 14 13 14 14 15 15 15 14 14 13 13 13 13 14 14 14 15 15 16 17 18 18 19 19 19 19 20 21 21 21 20 19 20 21 21 20 18 15 16 16 14 11 11 12 12 12 12 13 13 14 15 16 16 16 16 16 16
17 17 16 16 16 16 15 15 15 15 15 15 15 14 14 14 13 13 14 14 14 14 15 15 15 15 16 16 16 16 15 15 16 17 16 16 15 15 15 15 15 15 15 16 16 17 17 18 18 18 18 18 17 18 21 22 20 18 18 19 21 21 20 20 18 15 15 15 13 11 10 11 12 12 12 13 13 13 14 16 16 16 16 16 15
18 17 17 17 17 17 16 16 16 16 16 16 15 14 15 15 15 15 15 15 15 15 16 16 16 16 15 16 16 16 17 17 17 17 17 17 17 16 16 15 15 15 15 16 17 17 17 18 18 18 18 20 21 21 21 20 17 17 18 19 19 19 18 18 17 15 15 14 12 11 11 10 12 12 12 13 14 14 14 15 16 16 16 16 15
18 18 18 18 18 18 18 18 18 17 17 16 15 15 15 16 17 17 17 17 17 17 17 17 17 16 15 15 15 15 17 18 18 17 17 17 17 16 16 16 16 16 16 16 17 18 19 19 20 20 21 23 23 21 19 18 18 18 18 17 17 17 16 16 15 15 15 14 13 12 11 10 11 11 10 12 14 14 14 15 15 16 16 17 16
18 18 19 19 18 18 18 19 19 18 17 16 16 16 16 16 17 17 18 18 18 18 18 17 17 17 16 16 16 16 18 19 18 18 18 18 18 17 17 17 17 18 18 19 19 20 21 21 21 22 22 22 20 17 18 19 20 19 17 17 16 15 14 15 15 15 15 15 14 13 10 9 11 11 9 12 14 15 15 14 15 16 16 17 16
18 18 18 18 19 19 18 19 19 18 18 17 17 17 17 17 17 18 19 20 20 20 19 18 18 17 17 17 17 18 19 19 19 19 19 19 19 19 19 19 19 20 21 22 23 23 23 22 21 20 19 19 18 18 20 20 18 17 17 15 14 14 15 15 14 14 15 15 15 13 9 8 10 11 9 11 14 15 16 14 14 15 16 16 15
19 18 18 19 18 18 19 20 20 19 19 18 18 18 18 18 18 19 19 20 20 20 19 19 19 18 18 18 18 19 19 20 20 20 20 21 21 21 21 21 22 23 24 25 26 26 25 24 23 21 20 21 20 20 21 20 18 17 16 13 13 14 15 15 13 11 13 14 14 13 10 9 10 10 9 11 13 14 14 14 13 14 16 16 15
20 19 19 19 19 18 19 20 20 20 20 20 19 19 19 19 20 21 21 20 20 20 20 20 20 20 20 20 21 20 21 21 21 22 22 23 23 23 24 24 25 26 27 27 27 27 26 25 24 24 23 22 21 20 21 20 17 15 12 10 10 11 12 14 13 10 11 13 14 13 11 10 12 12 9 10 12 12 12 13 13 14 16 16 15
20 20 20 20 20 20 19 19 19 20 21 22 22 22 21 21 21 22 23 23 22 22 22 22 22 22 22 23 22 22 22 22 22 23 24 24 25 26 26 26 27 27 28 29 29 27 26 25 24 24 23 22 21 19 18 17 14 11 9 8 10 11 13 15 14 10 10 14 16 14 11 11 13 14 10 8 10 12 11 12 13 15 15 15 14
20 21 21 21 21 21 21 20 20 21 22 23 24 24 24 23 23 23 24 25 25 25 25 25 25 25 25 24 24 24 24 24 24 24 25 25 26 27 27 28 29 27 28 30 29 26 25 25 24 24 22 20 18 15 13 12 11 10 9 10 12 14 14 14 15 12 9 12 15 15 11 11 13 15 13 9 8 11 12 11 13 14 15 14 13
21 22 23 22 23 23 23 22 22 23 25 25 26 26 26 26 26 26 26 26 26 27 27 27 27 28 28 27 26 26 26 26 26 26 27 27 28 28 28 29 29 27 28 30 29 27 26 24 23 21 17 13 12 11 9 9 10 10 11 12 13 13 13 14 16 14 9 10 15 15 12 11 13 14 14 11 6 8 12 14 14 15 15 14 13
Wind_Direction
136 137 139 139 134 133 133 135 138 138 134 127 122 114 106 99 88 83 76 68 65 62 62 65 64 66 67 64 62 62 66 70 71 73 74 76 77 77 78 79 81 81 82 82 80 79 76 73 69 65 62 58 55 52 49 46 43 42 41 41 38 36 33 30 28 24 22 21 18 17 10 357 351 342 338 336 339 343 341 339 331 326 327 324 324
140 141 141 138 134 135 138 142 144 143 135 123 119 112 104 97 86 80 69 57 57 60 67 70 67 67 69 68 66 67 73 71 66 67 71 76 79 81 83 82 81 80 79 79 79 78 76 74 72 69 66 61 58 55 52 49 47 45 45 46 44 42 39 36 33 30 27 24 22 20 17 10 3 356 351 349 353 357 353 346 334 326 324 328 330
142 143 141 139 138 140 146 150 151 151 140 125 121 114 104 95 83 69 58 51 49 58 68 71 71 69 67 67 65 67 69 65 61 64 71 78 83 84 83 82 80 79 77 77 76 76 74 73 72 70 67 64 61 58 55 53 50 49 49 50 49 45 42 39 35 32 29 27 24 21 18 12 6 360 354 351 353 353 351 351 345 335 328 334 333
142 142 141 141 143 147 153 158 161 164 153 137 132 125 110 93 74 56 49 46 45 57 69 73 72 68 66 65 63 62 61 60 60 64 70 75 80 81 80 79 77 76 76 77 77 76 74 73 71 70 67 65 62 59 57 54 52 51 52 52 49 44 41 38 36 32 30 27 23 20 17 13 7 2 357 351 345 341 340 346 350 344 334 332 330
144 143 143 143 146 149 154 160 163 166 161 151 146 138 112 86 63 47 43 43 44 55 65 70 69 67 68 68 65 63 61 60 62 66 69 69 71 71 70 71 71 71 71 73 76 77 76 74 72 70 67 64 61 59 57 54 53 52 51 49 44 39 38 37 34 30 27 24 21 18 14 10 7 2 357 350 343 336 330 334 339 339 332 326 324
146 145 145 146 148 149 150 154 157 159 157 153 152 144 111 80 57 44 40 41 43 49 59 66 67 70 74 71 67 65 65 65 66 68 69 68 66 62 60 59 63 65 62 63 68 72 74 73 72 70 68 65 62 59 56 52 50 49 47 43 37 33 32 31 29 24 21 18 15 13 10 7 4 0 355 349 343 337 331 330 330 329 326 321 320
148 149 152 152 151 150 148 150 154 156 157 160 159 150 116 70 53 42 38 34 33 35 51 65 66 73 75 68 66 66 67 66 69 71 68 65 61 57 55 53 56 58 56 54 59 65 70 73 73 71 70 67 62 57 51 46 42 42 41 38 32 28 25 23 19 14 11 10 9 7 5 3 1 359 355 349 343 336 330 327 326 326 323 319 319
151 154 156 156 154 151 149 155 161 165 170 177 173 163 132 61 45 38 34 27 26 31 42 54 62 74 71 64 65 64 60 62 68 68 63 57 52 51 53 53 55 55 55 55 57 62 68 72 73 72 69 64 58 50 42 36 32 32 34 33 29 25 22 18 12 8 6 4 3 1 0 359 357 357 355 352 348 339 330 324 323 322 320 319 320
154 153 153 155 155 153 156 165 174 183 194 199 189 176 152 63 35 28 23 16 21 30 34 36 53 71 67 61 59 53 51 57 65 62 59 54 48 48 51 55 59 60 61 61 60 62 65 69 69 67 61 54 46 37 30 25 21 20 21 21 20 16 13 9 5 2 0 358 356 355 355 353 353 354 353 353 352 348 341 335 331 326 321 319 319
156 154 156 159 160 163 167 170 177 188 194 198 191 181 173 83 30 17 9 7 15 22 19 19 47 65 55 48 43 34 42 57 63 60 57 50 48 52 54 58 64 67 68 65 65 66 65 65 60 56 50 41 32 25 18 14 10 8 8 4 2 359 358 358 357 356 355 354 351 350 349 348 348 350 351 353 354 354 352 348 344 337 327 322 320
159 162 166 168 170 172 170 165 166 168 174 183 186 186 197 266 15 10 3 3 9 14 13 19 51 52 29 27 32 29 46 64 61 55 49 45 49 56 59 65 71 72 72 70 68 69 68 62 54 47 40 31 24 19 14 11 7 4 4 1 356 355 355 355 355 354 353 350 346 344 343 341 342 344 346 349 351 353 355 353 350 345 338 331 327
166 170 173 173 173 170 167 165 157 149 156 174 186 199 219 267 346 2 7 5 6 12 17 32 40 26 18 22 42 53 66 66 53 44 36 36 44 51 63 74 76 73 71 71 67 64 62 55 47 40 33 26 20 17 13 11 9 7 8 8 2 357 354 353 351 351 350 347 342 338 336 335 336 338 339 342 345 348 350 351 350 348 346 341 336
171 173 175 174 169 165 167 165 153 142 144 168 196 216 233 271 330 353 13 11 6 14 24 31 15 12 28 37 59 76 75 57 44 39 33 29 29 46 85 90 81 73 65 61 51 39 31 27 21 16 14 13 11 13 11 8 9 11 15 13 1 352 347 344 343 345 345 345 343 339 334 333 332 333 332 332 335 338 340 342 343 345 346 345 344
173 173 173 170 166 167 170 162 153 145 138 162 200 221 244 279 321 351 12 10 4 14 29 29 19 35 53 56 67 68 58 44 34 27 27 32 36 56 120 115 82 51 56 41 20 10 2 358 353 347 346 350 359 9 11 8 9 13 12 1 350 345 342 340 340 340 340 343 344 340 335 332 330 327 325 323 323 325 328 331 334 338 340 343 347
170 169 166 163 162 168 170 163 157 148 149 162 182 204 226 277 337 359 9 12 5 6 17 23 30 50 55 62 63 43 30 29 25 17 16 24 38 63 150 131 314 341 33 13 353 347 340 340 339 331 325 322 334 5 10 5 6 4 352 342 337 337 340 341 340 337 336 339 340 338 337 335 332 328 325 321 317 315 317 322 327 332 332 335 343
167 165 163 161 161 165 168 171 170 163 167 164 162 168 157 111 36 9 9 17 11 2 4 16 36 47 47 59 53 32 17 7 9 13 13 14 17 74 226 311 305 307 342 332 327 327 328 339 341 329 319 311 301 335 345 335 343 338 329 327 326 331 338 341 338 334 334 336 337 339 340 338 336 335 333 328 322 317 315 318 323 326 327 329 335
166 164 164 166 167 173 173 180 187 178 163 162 157 147 135 118 69 24 16 20 19 17 16 19 38 45 48 60 54 38 20 1 0 5 7 7 4 351 249 281 288 291 301 310 314 317 321 333 338 327 319 310 280 256 279 296 316 324 326 324 324 330 336 339 336 332 333 334 335 338 340 339 337 336 337 336 333 330 324 318 319 323 325 326 328
167 168 172 176 178 181 183 188 194 184 165 166 158 140 135 137 114 49 33 30 31 37 34 32 37 37 48 57 55 47 25 7 7 2 360 6 10 12 335 278 280 288 295 309 316 317 318 323 326 321 319 311 279 258 273 295 314 326 332 332 330 330 333 337 337 334 335 335 337 339 339 339 337 337 338 338 339 338 333 322 316 320 324 326 325
175 178 179 182 184 186 190 194 196 189 180 174 164 149 151 155 141 91 60 61 69 60 44 38 36 35 45 46 42 43 25 14 16 6 6 11 14 19 14 358 340 320 314 322 324 323 325 327 326 319 317 312 283 265 281 301 318 328 335 338 336 332 332 336 337 336 337 337 337 339 339 338 338 338 337 336 336 337 336 327 317 317 323 329 327
183 186 187 187 189 191 195 197 193 192 188 183 176 169 168 173 171 153 108 99 104 89 65 43 30 22 27 26 25 23 15 15 12 6 13 4 1 14 10 6 10 354 337 333 328 326 328 328 324 318 317 313 283 264 283 304 320 328 333 336 335 333 332 333 334 334 335 335 335 338 338 337 337 336 334 332 332 334 334 328 320 316 321 329 331
190 192 193 193 194 196 198 198 196 194 193 189 185 182 188 195 196 195 183 160 139 112 87 58 38 16 3 5 1 348 352 2 3 7 11 354 349 359 354 352 357 350 342 339 334 331 332 332 326 318 316 316 285 265 284 305 320 326 328 330 331 331 331 330 330 333 333 333 336 339 342 342 339 335 332 331 333 335 334 329 322 317 319 326 330
198 199 199 200 201 201 201 202 204 203 195 191 190 192 207 210 211 215 213 210 208 184 94 30 27 16 5 358 342 324 328 349 2 7 1 355 344 337 343 348 344 345 345 343 341 341 343 344 340 330 323 319 291 273 289 306 316 320 322 325 328 330 331 329 330 332 332 334 337 340 344 346 344 340 337 334 333 333 332 329 324 318 318 322 326
205 205 205 207 208 207 208 211 212 209 202 200 202 208 214 215 218 224 227 231 238 247 265 298 323 337 347 339 328 324 323 332 345 342 340 346 338 329 335 339 337 342 343 342 346 352 355 356 353 346 338 329 304 289 298 306 309 314 319 324 329 331 331 329 331 333 332 334 338 338 338 341 342 342 338 334 330 328 327 326 323 318 315 317 321
210 208 209 212 214 214 214 218 219 215 211 212 218 222 219 217 224 231 236 242 247 255 262 272 291 303 312 310 311 322 321 320 327 328 327 327 330 331 332 336 338 340 342 347 354 358 1 5 359 351 346 336 319 306 307 308 310 316 323 331 335 333 331 332 334 335 333 334 337 336 335 336 338 339 336 331 330 328 327 327 326 320 313 311 316
213 211 211 214 219 218 218 223 225 223 222 224 231 230 222 221 233 238 242 247 250 254 256 259 269 278 288 293 295 303 301 302 310 317 323 323 328 330 327 333 335 335 343 353 1 3 4 10 2 350 346 339 328 317 315 316 318 325 334 340 341 336 332 335 336 334 331 331 332 333 333 333 336 337 335 333 333 333 333 336 336 331 322 316 319
215 213 213 217 221 221 223 227 229 228 229 233 237 233 224 224 237 242 244 250 251 253 255 257 262 267 274 278 283 287 286 289 296 304 314 319 323 321 322 329 328 328 340 352 1 5 1 3 359 350 347 344 338 329 327 330 330 333 338 341 342 339 335 334 332 329 327 328 329 330 330 332 335 337 336 336 338 338 341 345 344 343 344 342 339
216 213 213 218 221 222 228 231 232 232 232 236 239 235 230 232 242 247 248 251 253 255 257 258 261 266 269 273 275 278 281 284 289 294 299 303 307 310 318 325 323 323 331 344 356 358 354 357 354 348 348 346 344 338 334 337 336 335 338 342 344 340 336 334 331 329 329 329 330 330 330 332 335 337 338 340 342 344 349 352 352 357 4 6 2
219 217 217 219 222 225 232 235 235 234 233 235 239 239 238 241 246 248 248 252 254 257 260 261 263 266 268 272 273 274 279 282 283 287 289 293 298 303 311 319 320 324 327 335 344 344 347 351 346 345 349 345 344 344 342 342 340 338 341 344 344 341 339 337 334 333 331 330 330 330 331 334 336 337 339 341 343 347 354 357 357 3 9 8 3
222 223 223 223 223 225 231 236 237 235 235 235 238 241 244 246 248 248 248 251 254 257 261 262 263 265 267 270 270 271 275 281 283 285 286 290 294 296 300 304 308 316 319 322 329 331 334 341 340 341 345 344 344 347 347 346 346 344 342 339 337 337 336 335 334 332 329 328 329 331 333 334 335 336 337 339 342 347 355 358 358 0 5 5 0
224 226 228 226 224 225 229 234 238 238 237 237 237 239 242 245 247 249 249 251 254 256 259 261 263 266 268 270 272 271 273 277 280 281 285 289 290 291 293 294 296 301 305 309 315 319 323 330 332 334 340 344 345 348 348 345 344 344 341 336 332 330 329 329 330 329 328 329 330 331 332 333 334 334 334 335 337 342 349 353 354 353 356 358 355
226 228 229 228 227 227 230 234 237 239 239 239 238 238 240 243 244 246 249 250 251 252 255 260 264 267 269 272 274 275 274 275 275 278 285 289 288 289 291 292 291 292 296 302 305 312 322 325 325 329 334 335 337 342 343 339 337 338 338 336 333 329 328 328 328 328 328 329 330 330 330 331 332 333 332 331 331 334 338 343 346 346 346 348 347
229 232 233 232 231 231 233 236 238 238 239 239 238 239 241 243 243 244 247 249 250 250 252 256 262 266 270 272 274 276 277 276 276 278 283 288 289 290 291 291 290 289 293 297 299 307 318 322 324 329 329 328 331 334 336 335 333 334 336 335 333 332 331 331 330 330 330 330 329 329 329 330 332 332 330 327 326 326 327 331 335 337 339 340 340
232 234 236 236 235 234 236 238 240 240 239 238 239 240 242 245 245 247 249 251 253 254 254 256 260 266 270 272 274 276 277 276 277 279 281 285 288 290 292 292 291 291 291 290 293 301 311 318 327 331 329 331 334 334 335 335 333 333 335 335 336 336 335 335 334 332 332 332 329 329 330 331 331 331 328 325 323 321 321 322 325 327 331 333 333
233 235 237 238 238 237 237 239 242 242 241 239 239 240 243 245 247 249 251 253 255 257 258 259 262 266 269 272 275 277 278 276 276 277 277 277 278 282 288 289 289 290 287 284 286 294 302 310 321 328 330 333 336 337 338 338 336 335 336 337 338 338 337 336 335 333 333 333 331 330 330 330 330 328 325 324 323 323 322 322 323 324 326 327 329
235 236 237 239 240 240 239 240 241 242 242 239 237 239 243 245 247 250 251 253 255 257 258 259 261 263 266 271 275 277 277 275 273 273 274 274 272 273 277 280 282 281 279 278 281 289 296 303 313 321 323 327 332 336 338 339 339 338 337 336 336 337 336 335 334 332 332 334 332 330 330 329 327 325 324 326 327 328 328 328 327 327 327 329 330
237 238 239 241 242 242 242 241 241 242 242 239 238 240 243 246 248 251 252 254 255 256 256 256 257 259 263 267 270 272 274 272 268 267 272 273 271 271 275 278 279 278 276 274 277 284 290 297 305 310 313 317 323 330 334 337 339 337 333 331 331 331 332 334 335 333 333 336 335 333 332 329 326 326 327 330 331 332 333 333 332 331 330 332 333
237 240 241 242 242 242 242 242 242 243 243 242 241 242 245 248 249 251 253 254 254 255 255 254 255 257 260 264 265 266 268 269 266 264 266 266 264 266 273 279 281 281 279 278 279 283 287 293 299 302 306 310 314 321 327 331 332 332 330 329 328 327 329 334 337 335 336 341 338 336 337 332 329 331 330 331 333 333 335 334 333 333 334 335 336
237 239 241 241 241 242 243 244 245 246 247 246 245 243 245 248 248 249 251 252 252 253 254 254 255 257 260 261 262 262 262 264 266 263 258 254 255 263 273 279 281 281 280 280 281 283 286 290 293 296 300 304 308 315 321 324 327 328 328 328 328 328 331 336 338 336 338 343 339 339 342 338 335 336 334 334 335 334 334 333 333 335 338 339 341
238 239 241 241 243 244 245 246 248 249 249 248 247 246 246 247 249 249 249 249 249 250 253 255 256 257 259 260 260 260 259 261 262 259 253 251 257 265 273 278 281 284 285 286 285 286 289 291 292 294 297 300 305 311 315 320 323 324 325 327 329 332 333 336 338 336 336 342 344 342 343 342 340 339 337 337 339 338 338 339 339 340 343 344 346
239 242 243 244 245 247 247 247 248 249 249 248 248 249 249 249 249 249 248 247 248 251 255 258 258 258 259 259 260 259 259 258 255 251 252 256 263 269 274 280 285 289 292 293 292 292 294 294 294 294 296 299 304 309 314 318 320 320 323 327 329 330 330 333 338 336 333 342 351 346 341 344 345 344 340 338 341 343 344 346 346 346 348 351 352
241 243 244 245 246 247 247 246 245 247 248 249 250 251 250 249 248 248 248 248 250 254 257 259 260 261 260 260 260 259 258 256 252 250 253 259 266 272 278 285 290 293 294 294 294 296 297 297 298 298 298 302 307 310 313 315 315 317 322 324 324 327 328 331 337 336 332 341 351 345 341 345 347 344 339 338 342 345 346 349 352 354 356 357 358
242 243 242 242 244 245 246 245 245 247 250 251 252 251 248 246 247 250 252 252 254 256 257 259 260 261 262 261 260 258 257 255 254 254 257 262 268 274 281 288 293 294 292 290 292 295 296 296 297 298 300 303 305 307 309 312 313 316 320 322 323 328 331 332 337 338 333 338 345 341 341 347 348 345 338 338 341 342 344 350 357 0 358 356 358
243 243 241 240 242 244 245 245 245 249 252 252 253 252 248 244 245 250 255 257 259 260 261 262 261 262 263 263 263 262 259 258 258 259 262 266 271 276 281 288 293 293 290 291 295 297 296 296 296 297 299 301 303 305 307 308 309 310 316 320 322 326 328 330 336 334 328 333 343 342 343 346 349 346 336 333 336 335 338 346 353 356 355 353 353
245 244 242 241 243 244 245 246 247 251 255 254 253 253 252 249 248 249 253 256 259 262 263 264 264 266 267 265 265 266 264 262 261 262 264 267 271 276 282 289 292 290 291 296 300 300 297 294 294 294 296 297 301 304 303 301 303 308 314 316 317 320 321 323 328 325 321 329 340 344 344 342 347 352 338 328 331 331 332 337 341 345 349 351 351
246 244 243 243 244 245 247 249 251 254 257 258 256 255 257 258 256 256 258 260 263 265 265 265 266 267 267 265 265 265 266 266 265 265 266 268 271 277 283 288 290 289 291 296 300 302 301 297 294 293 294 295 297 298 296 298 304 308 309 309 310 311 311 316 324 324 324 332 338 343 347 340 346 357 339 321 326 329 328 332 336 339 344 346 346
246 244 242 243 245 246 248 252 254 256 259 260 258 257 257 259 260 260 262 264 266 266 265 266 268 268 268 268 268 268 270 271 270 271 271 271 273 276 280 284 286 287 289 292 296 300 302 301 297 293 291 291 293 293 294 298 302 302 303 305 306 307 312 321 329 327 326 335 339 341 346 337 342 357 343 321 325 328 326 331 337 340 345 347 345
243 242 241 243 247 249 252 254 257 260 262 263 262 261 259 259 261 262 264 266 266 265 264 265 267 269 271 271 271 271 272 272 272 273 274 275 275 276 278 280 282 283 285 288 292 296 298 300 298 293 290 290 292 293 293 296 297 298 300 305 308 313 318 324 331 328 323 330 336 334 333 326 331 348 345 321 320 323 321 325 334 341 345 347 344
245 243 241 242 245 251 256 261 263 265 265 265 265 265 264 263 263 263 264 266 266 265 264 265 266 268 270 270 270 271 272 272 273 273 274 275 275 275 276 277 278 280 282 284 288 291 293 295 294 292 290 289 288 289 291 295 299 303 308 312 314 320 321 320 328 330 315 318 327 328 326 321 320 330 339 322 315 317 313 313 324 336 341 341 338
251 247 244 244 244 247 253 261 267 268 267 267 268 267 267 267 266 265 263 263 263 264 264 266 268 269 269 268 268 270 272 275 277 278 278 276 275 274 274 274 274 276 278 281 284 286 288 290 290 289 288 287 288 291 294 299 305 312 317 315 313 319 322 322 328 331 310 308 318 324 324 318 315 321 331 324 310 307 303 302 313 325 333 334 330
261 257 250 247 248 249 252 258 266 270 271 270 268 267 268 269 269 268 265 262 260 261 263 265 267 268 267 267 268 270 272 275 276 277 277 277 276 275 273 272 272 272 273 277 280 281 283 284 285 286 286 285 288 294 296 297 303 309 312 311 313 319 325 324 324 327 314 302 311 321 321 314 314 319 327 329 310 297 294 298 310 319 324 325 323
269 268 260 254 254 256 257 260 265 267 269 269 267 267 267 268 269 270 268 265 261 259 260 262 264 265 265 266 267 268 270 271 272 273 274 274 273 272 271 270 269 266 266 271 275 276 277 276 277 278 276 273 279 286 286 290 300 308 311 315 317 319 322 321 321 324 314 293 304 317 319 313 315 320 326 333 322 293 295 303 311 316 318 319 318